This is the latest recevied weather packets stored in our database for station/object YO6LRV-3. If no packets are shown the sender has not sent any weather packets the latest 10 day(s).
| Time | Temp. | Humidity | Pressure | Rain* | Wind** | Luminosity | Snow |
|---|---|---|---|---|---|---|---|
| 1777565149 | 8.89° C | 56% | 1022.1 hPa | - | - | - | - |
| 1777564249 | 8.89° C | 57% | 1021.9 hPa | - | - | - | - |
| 1777563349 | 8.89° C | 57% | 1021.9 hPa | - | - | - | - |
| 1777562449 | 8.89° C | 58% | 1022.1 hPa | - | - | - | - |
| 1777561556 | 9.44° C | 51% | 1022 hPa | - | - | - | - |
| 1777560656 | 10° C | 50% | 1021.9 hPa | - | - | - | - |
| 1777558855 | 10.56° C | 48% | 1021.7 hPa | - | - | - | - |
| 1777557955 | 11.11° C | 48% | 1021.6 hPa | - | - | - | - |
| 1777557055 | 11.11° C | 48% | 1021.6 hPa | - | - | - | - |
| 1777556148 | 11.11° C | 47% | 1021.5 hPa | - | - | - | - |
| 1777555255 | 11.11° C | 47% | 1021.5 hPa | - | - | - | - |
| 1777554350 | 10.56° C | 47% | 1021.7 hPa | - | - | - | - |
| 1777553450 | 10.56° C | 48% | 1021.8 hPa | - | - | - | - |
| 1777552557 | 10.56° C | 49% | 1021.9 hPa | - | - | - | - |
| 1777551657 | 10° C | 49% | 1022 hPa | - | - | - | - |
| 1777550757 | 10° C | 49% | 1022.2 hPa | - | - | - | - |
| 1777549857 | 10.56° C | 49% | 1022.2 hPa | - | - | - | - |
| 1777548957 | 10.56° C | 49% | 1022.1 hPa | - | - | - | - |
| 1777548056 | 10.56° C | 47% | 1022.1 hPa | - | - | - | - |
| 1777547156 | 10.56° C | 50% | 1022.2 hPa | - | - | - | - |
| 1777546256 | 10.56° C | 49% | 1022 hPa | - | - | - | - |
| 1777544456 | 10° C | 49% | 1022.1 hPa | - | - | - | - |
| 1777543556 | 10° C | 49% | 1022.2 hPa | - | - | - | - |
| 1777542656 | 10° C | 50% | 1022.4 hPa | - | - | - | - |
| 1777541755 | 10° C | 51% | 1022.3 hPa | - | - | - | - |
* Rain since midnight (hover to see other rain measurements)
** Current wind speed in m/s (hover to see current wind gust speed)